Weather in Sotsialisticheskiy

Russia / Tula Oblast     53°58′20″N   37°36′47″E
temp.,
°C
wind,
m/s
gust,
m/s
humid.,
%
clouds,
%
prec.,
mm/h
press.,
hPa
HPBL,
m
8 march, mon
mon800:00−8wsw513840 0.0 999280
03:00−8wsw6148615 0.0 1000346
06:00−8wsw7158870 0.0 999491
09:00−6w8138984 0.1 1000947
12:00−6wnw81180100 0.1 10021063
15:00−5wnw578392 0.1 1005835
18:00−8wnw348987 0.0 100743
21:00−10wnw239166 0.0 100932
9 march, tue
tue900:00−12nw239577 0.0 101021
03:00−13n359687 0.1 1012144
06:00−16nnw359787 0.1 101490
09:00−15nnw479582 0.1 1016266
12:00−12nnw478995 0.0 1017543
15:00−10nw578598 0.1 1018758
18:00−13nw3689100 0.0 1019120
21:00−17nw349064 0.0 102272
10 march, wed
wed1000:00−19nnw23968 0.0 102320
03:00−21nnw23988 0.0 102520
06:00−21nnw129833 0.0 102520
09:00−18ne229067 0.0 1027168
12:00−15ene2381100 0.0 1027317
15:00−14ene3378100 0.0 1027441
18:00−16e3489100 0.0 102774
21:00−21e339059 0.0 102925
11 march, thu
thu1100:00−23e23910 0.0 103020
03:00−23e22930 0.0 103220
06:00−24e22927 0.0 103220
09:00−20ese228911 0.0 103385
12:00−15se23770 0.0 1033318
15:00−13sse33740 0.0 1033407
18:00−17sse33860 0.0 103226
21:00−21sse34900 0.0 103332
12 march, fri
fri1200:00−21sse44910 0.0 103377
03:00−22s47900 0.0 1032122
06:00−21sse511830 0.0 1031196
09:00−16s7128926 0.0 1029315
12:00−10s81485100 0.0 1027484
15:00−7s91584100 0.0 1024720
18:00−7s91784100 0.0 1021949
21:00−6s111891100 0.4 10191044